Date_and_time,latitude,longitude,wind_speed,RelWindDirFrom,WindDirFrom,air_pressure,air_temperature,relative_humidity,Temp,platform_speed_wrt_ground,air_pressure_at_mean_sea_level,platform_orientation
2019-07-30 23:50,52.28107,-97.639005,20.8,23.2,136,989.24,20.7,47,21.33,10.7,1015.21,162.4
2019-07-31 00:00,52.2517766666667,-97.6314733333333,19.9,21.9,136,989.30,20.9,47,21.40,10.7,1015.26,170.8
2019-07-31 00:10,52.2393933333333,-97.6620983333333,9.7,21.3,150,989.94,20.9,50,21.54,8.1,1015.91,170.8
2019-07-31 00:20,52.23582,-97.71273,5.8,8.1,173,990.16,21.0,52,21.45,11.2,1016.12,170.8
2019-07-31 00:30,52.230755,-97.7634983333333,5.9,9.3,169,990.07,21.0,54,21.24,11.3,1016.02,170.8
2019-07-31 00:40,52.2207016666667,-97.8107916666667,8.4,17.4,159,989.90,20.9,55,20.97,11.0,1015.84,170.8
2019-07-31 00:50,52.19953,-97.830945,14.0,17.6,136,989.80,20.9,56,20.77,8.8,1015.73,170.8
2019-07-31 01:00,52.1917183333333,-97.8362883333333,12.6,14.0,113,989.76,20.9,59,21.11,3.0,1015.69,189.4
2019-07-31 01:10,52.1853133333333,-97.841485,11.3,14.0,108,989.75,20.9,59,20.97,2.6,1015.68,189.4
2019-07-31 01:20,52.1790033333333,-97.8471766666667,10.0,11.5,110,989.71,21.0,61,20.89,2.6,1015.63,189.4
2019-07-31 01:30,52.1713616666667,-97.85418,8.9,10.8,118,989.66,21.1,60,20.93,3.2,1015.57,189.4
2019-07-31 01:40,52.1713966666667,-97.8543783333333,8.9,10.7,109,989.46,21.5,59,20.96,0.0,1015.34,189.4
2019-07-31 01:50,52.171405,-97.8543766666667,9.4,11.5,110,989.30,21.5,59,20.96,0.0,1015.17,189.4
2019-07-31 02:00,52.1779466666667,-97.8484733333333,11.6,17.5,105,989.21,21.6,58,20.96,2.7,1015.08,202.6
2019-07-31 02:10,52.2039266666667,-97.8246,14.8,17.2,83,989.22,21.6,57,20.99,10.7,1015.08,202.6
2019-07-31 02:20,52.22615,-97.7971266666667,14.3,21.1,94,989.37,21.4,58,20.75,10.0,1015.25,202.6
2019-07-31 02:30,52.230315,-97.7508516666667,20.1,22.5,115,989.25,21.3,58,20.88,10.3,1015.13,202.6
2019-07-31 02:40,52.235085,-97.7032466666667,20.2,22.0,118,989.39,21.1,59,21.00,10.6,1015.29,202.6
2019-07-31 02:50,52.23687,-97.6941683333333,12.4,21.7,139,989.70,20.9,60,21.11,2.1,1015.61,202.6
2019-07-31 03:00,52.2369166666667,-97.69406,10.0,11.7,152,989.85,20.8,60,21.19,0.0,1015.76,248.8
2019-07-31 03:10,52.23692,-97.69405,9.4,11.3,154,989.89,20.8,61,21.19,0.0,1015.80,248.8
2019-07-31 03:20,52.2369183333333,-97.6940416666667,8.8,10.8,156,989.92,20.7,62,21.19,0.0,1015.83,248.8
2019-07-31 03:30,52.2369116666667,-97.694075,8.3,10.0,154,989.94,20.7,65,21.19,0.0,1015.84,248.8
2019-07-31 03:40,52.2369283333333,-97.6940883333333,9.6,12.0,156,989.78,20.6,65,21.20,0.0,1015.68,248.8
2019-07-31 03:50,52.2369566666667,-97.69407,12.8,15.8,159,989.57,20.6,64,21.21,0.0,1015.46,248.8
2019-07-31 04:00,52.2369483333333,-97.69403,13.3,15.4,160,989.47,20.4,65,21.21,0.0,1015.37,62.5
2019-07-31 04:10,52.23694,-97.6940866666667,13.9,15.9,160,989.46,20.3,65,21.20,0.0,1015.37,62.5
2019-07-31 04:20,52.2369466666667,-97.694085,14.8,17.9,163,989.45,20.2,66,21.19,0.0,1015.36,62.5
2019-07-31 04:30,52.23694,-97.69406,15.1,17.4,162,989.37,20.2,65,21.19,0.0,1015.29,62.5
2019-07-31 04:40,52.2369616666667,-97.694035,14.4,17.2,163,989.41,20.1,66,21.18,0.0,1015.35,62.5
2019-07-31 04:50,52.23697,-97.6939883333333,14.8,17.9,164,989.35,20.0,66,21.17,0.0,1015.29,62.5
2019-07-31 05:00,52.2369866666667,-97.6938766666667,15.9,18.4,165,989.15,19.8,65,21.18,0.0,1015.10,58.0
2019-07-31 05:10,52.23697,-97.6939216666667,15.7,18.5,169,989.19,19.7,66,21.17,0.0,1015.15,58.0
2019-07-31 05:20,52.2369483333333,-97.6940466666667,15.9,18.5,170,989.17,19.6,66,21.16,0.0,1015.13,58.0
2019-07-31 05:30,52.2369833333333,-97.6938966666667,15.2,18.5,174,989.19,19.6,66,21.14,0.0,1015.16,58.0
2019-07-31 05:40,52.2369733333333,-97.6939033333333,15.2,17.7,174,989.23,19.7,66,21.14,0.0,1015.19,58.0
2019-07-31 05:50,52.2369933333333,-97.69389,14.7,18.0,172,989.24,19.6,66,21.12,0.0,1015.22,58.0
2019-07-31 06:00,52.2369883333333,-97.69377,15.0,18.3,176,989.23,19.7,65,21.11,0.0,1015.21,65.7
2019-07-31 06:10,52.2369866666667,-97.69382,15.5,17.6,174,989.18,19.7,65,21.10,0.0,1015.16,65.7
2019-07-31 06:20,52.2369616666667,-97.6938933333333,15.3,18.2,172,989.13,19.6,65,21.10,0.0,1015.12,65.7
2019-07-31 06:30,52.2369583333333,-97.6939733333333,15.0,18.0,177,989.24,19.7,64,21.10,0.0,1015.23,65.7
2019-07-31 06:40,52.2369733333333,-97.6939816666667,15.3,17.6,174,989.29,19.7,62,21.08,0.0,1015.28,65.7
2019-07-31 06:50,52.23698,-97.6939366666667,14.3,16.8,176,989.33,19.6,64,21.08,0.0,1015.33,65.7
2019-07-31 07:00,52.236975,-97.69395,15.0,17.8,178,989.28,19.5,63,21.07,0.0,1015.29,62.7
2019-07-31 07:10,52.2369816666667,-97.6939366666667,14.0,16.7,180,989.27,19.4,63,21.07,0.0,1015.29,62.7
2019-07-31 07:20,52.2369783333333,-97.6939166666667,14.4,16.6,180,989.10,19.3,62,21.06,0.0,1015.13,62.7
2019-07-31 07:30,52.23698,-97.693775,15.3,17.8,185,989.11,19.2,61,21.05,0.0,1015.14,62.7
2019-07-31 07:40,52.2369883333333,-97.6936566666667,15.8,20.3,186,989.09,19.2,59,21.04,0.0,1015.12,62.7
2019-07-31 07:50,52.2369716666667,-97.6936983333333,16.1,19.2,183,988.94,19.0,58,21.04,0.0,1014.97,62.7
2019-07-31 08:00,52.236975,-97.693845,16.2,18.6,184,988.79,18.6,59,21.03,0.0,1014.83,124.6
2019-07-31 08:10,52.2369933333333,-97.6938766666667,15.2,17.8,185,988.82,18.6,60,21.03,0.0,1014.86,124.6
2019-07-31 08:20,52.2369866666667,-97.6938616666667,15.4,18.6,186,988.81,18.7,60,21.03,0.0,1014.85,124.6
2019-07-31 08:30,52.23699,-97.69376,15.4,17.7,189,988.79,18.5,59,21.01,0.0,1014.84,124.6
2019-07-31 08:40,52.236955,-97.69371,14.9,18.1,193,988.73,18.5,59,21.01,0.0,1014.78,124.6
2019-07-31 08:50,52.2369883333333,-97.6937633333333,13.2,16.8,193,988.77,18.3,61,21.00,0.0,1014.83,124.6
2019-07-31 09:00,52.2370016666667,-97.6938033333333,13.3,16.5,193,988.70,18.2,61,21.00,0.0,1014.77,297.8
2019-07-31 09:10,52.2369966666667,-97.6937733333333,14.4,16.9,193,988.66,18.1,60,20.99,0.0,1014.73,297.8
2019-07-31 09:20,52.2369716666667,-97.69373,14.3,16.2,194,988.70,17.9,61,20.98,0.0,1014.79,297.8
2019-07-31 09:30,52.2369666666667,-97.6936766666667,14.0,16.8,196,988.88,17.8,63,20.97,0.0,1014.98,297.8
2019-07-31 09:40,52.2369566666667,-97.6935966666667,13.4,16.9,197,988.91,17.8,64,20.97,0.0,1015.02,297.8
2019-07-31 09:50,52.2369566666667,-97.6936316666667,13.5,16.2,193,988.87,17.7,65,20.97,0.0,1015.00,297.8
2019-07-31 10:00,52.2369483333333,-97.6935566666667,13.2,16.5,194,988.86,17.8,66,20.96,0.0,1014.98,96.7
2019-07-31 10:10,52.236955,-97.6935683333333,13.7,16.3,192,988.77,17.7,66,20.95,0.0,1014.89,96.7
2019-07-31 10:20,52.2369433333333,-97.69352,14.3,16.6,195,988.86,17.6,65,20.95,0.0,1015.01,96.7
2019-07-31 10:30,52.2369366666667,-97.693475,13.6,15.7,197,988.84,17.4,66,20.95,0.0,1014.99,96.7
2019-07-31 10:40,52.236945,-97.693455,14.3,17.0,196,988.79,17.3,67,20.95,0.0,1014.95,96.7
2019-07-31 10:50,52.23695,-97.693485,14.4,16.3,195,988.70,17.1,67,20.94,0.0,1014.87,96.7
2019-07-31 11:00,52.2369616666667,-97.69356,13.6,15.9,193,988.64,17.1,68,20.93,0.0,1014.82,95.3
2019-07-31 11:10,52.2369633333333,-97.69363,13.3,15.4,191,988.57,17.2,68,20.93,0.0,1014.75,95.3
2019-07-31 11:20,52.2369783333333,-97.6936533333333,13.5,16.0,187,988.43,17.3,69,20.93,0.0,1014.61,95.3
2019-07-31 11:30,52.2369916666667,-97.6936316666667,15.1,18.0,187,988.27,17.3,70,20.92,0.0,1014.45,95.3
2019-07-31 11:40,52.23697,-97.6935666666667,15.6,18.3,187,988.03,17.2,70,20.92,0.0,1014.20,95.3
2019-07-31 11:50,52.23697,-97.693585,15.4,17.7,184,987.93,17.2,71,20.91,0.0,1014.10,95.3
2019-07-31 12:00,52.2369733333333,-97.6936016666667,15.7,18.2,181,987.92,17.6,71,20.91,0.0,1014.07,102.9
2019-07-31 12:10,52.2360333333333,-97.69521,15.9,19.1,181,987.99,17.5,71,20.91,0.5,1014.15,102.9
2019-07-31 12:20,52.238,-97.683505,15.4,20.3,175,988.22,17.7,74,20.89,2.7,1014.39,102.9
2019-07-31 12:30,52.2401833333333,-97.6710266666667,15.1,16.9,179,988.25,17.8,74,20.86,2.9,1014.43,102.9
2019-07-31 12:40,52.2419383333333,-97.6584666666667,15.3,17.9,180,988.29,17.9,74,20.84,2.8,1014.47,102.9
2019-07-31 12:50,52.24261,-97.6393633333333,15.9,18.2,172,988.41,17.9,73,20.87,4.2,1014.58,102.9
2019-07-31 13:00,52.24095,-97.6282133333333,16.7,20.5,182,988.30,17.6,72,20.95,2.5,1014.48,84.3
2019-07-31 13:10,52.2409633333333,-97.6281716666667,16.1,18.7,193,988.22,17.7,71,20.98,0.0,1014.40,84.3
2019-07-31 13:20,52.240965,-97.6281383333333,16.6,19.6,193,988.17,17.9,70,20.99,0.0,1014.33,84.3
2019-07-31 13:30,52.24095,-97.6280266666667,15.6,17.6,193,988.36,18.1,70,20.99,0.0,1014.53,84.3
2019-07-31 13:40,52.2295733333333,-97.61851,20.4,28.3,191,988.38,18.1,69,21.00,4.6,1014.54,84.3
2019-07-31 13:50,52.2031116666667,-97.5949166666667,24.9,27.8,187,988.25,18.3,68,21.03,10.9,1014.39,84.3
2019-07-31 14:00,52.1766133333333,-97.5714416666667,24.0,27.3,185,988.38,18.4,66,20.95,10.9,1014.52,128.8
2019-07-31 14:10,52.150095,-97.5477416666667,22.9,26.0,183,988.64,18.2,67,20.90,10.9,1014.79,128.8
2019-07-31 14:20,52.13983,-97.538255,13.1,23.8,192,989.57,18.0,67,20.77,4.2,1015.75,128.8
2019-07-31 14:30,52.1400833333333,-97.5382483333333,9.8,13.1,198,989.85,18.3,65,20.75,0.1,1016.02,128.8
2019-07-31 14:40,52.1400916666667,-97.538385,9.5,12.9,199,989.90,18.6,64,20.74,0.0,1016.05,128.8
2019-07-31 14:50,52.1400683333333,-97.5381983333333,10.7,13.9,207,989.88,18.9,61,20.74,0.0,1016.03,128.8
2019-07-31 15:00,52.14012,-97.538345,10.6,14.2,205,989.87,19.2,60,20.74,0.0,1016.01,135.4
2019-07-31 15:10,52.1400566666667,-97.5381966666667,11.3,16.5,208,989.80,19.7,58,20.73,0.0,1015.90,135.4
2019-07-31 15:20,52.1400783333333,-97.5383566666667,10.3,15.0,202,989.62,20.0,58,20.73,0.0,1015.69,135.4
2019-07-31 15:30,52.1436333333333,-97.5211916666667,8.8,15.9,172,989.48,20.1,58,20.74,4.0,1015.54,135.4
2019-07-31 15:40,52.1364933333333,-97.4771116666667,17.8,26.4,159,989.12,20.1,61,20.74,10.1,1015.16,135.4
2019-07-31 15:50,52.1160533333333,-97.439755,23.1,25.9,179,989.01,19.7,62,20.72,11.1,1015.07,135.4
2019-07-31 16:00,52.1038616666667,-97.41693,17.6,23.6,182,989.23,20.3,60,20.68,6.7,1015.28,136.5
2019-07-31 16:10,52.104215,-97.4168466666667,12.9,15.7,191,989.14,20.8,58,20.69,0.1,1015.17,136.5
2019-07-31 16:20,52.1041983333333,-97.41684,16.0,19.0,194,988.74,21.0,57,20.69,0.0,1014.73,136.5
2019-07-31 16:30,52.10399,-97.4170866666667,16.2,18.8,190,988.47,21.2,56,20.69,0.1,1014.44,136.5
2019-07-31 16:40,52.0828,-97.40001,25.1,31.0,170,987.45,21.3,56,20.69,8.5,1013.37,136.5
2019-07-31 16:50,52.0662866666667,-97.3618416666667,25.7,30.2,154,987.41,21.6,55,20.55,10.3,1013.30,136.5
2019-07-31 17:00,52.0505366666667,-97.327145,27.6,31.2,144,986.99,21.0,64,20.41,9.5,1012.88,129.9
2019-07-31 17:10,52.0352883333333,-97.2918066666667,29.8,34.5,144,986.58,20.6,66,20.48,9.6,1012.46,129.9
2019-07-31 17:20,52.0245966666667,-97.2478533333333,30.7,34.4,139,986.32,20.7,64,20.76,10.5,1012.19,129.9
2019-07-31 17:30,52.0150233333333,-97.202825,30.3,33.7,139,986.28,20.9,63,21.15,10.6,1012.13,129.9
2019-07-31 17:40,52.00719,-97.1567483333333,29.8,33.3,137,986.25,21.2,61,21.26,10.6,1012.11,129.9
2019-07-31 17:50,51.9970866666667,-97.1116583333333,27.9,30.6,138,986.48,21.3,64,21.15,10.6,1012.31,129.9
2019-07-31 18:00,51.9976533333333,-97.0644966666667,26.1,29.8,126,986.65,21.8,60,21.13,10.5,1012.44,115.9
2019-07-31 18:10,52.0004966666667,-97.04315,21.3,28.8,135,986.79,22.1,57,21.27,4.8,1012.57,115.9
2019-07-31 18:20,52.0005166666667,-97.0431066666667,19.9,22.7,147,986.71,22.1,59,21.37,0.0,1012.47,115.9
2019-07-31 18:30,52.0005133333333,-97.0431483333333,20.8,24.6,149,986.65,22.1,59,21.38,0.0,1012.41,115.9
2019-07-31 18:40,52.00038,-97.0430316666667,21.3,25.1,154,986.63,22.0,60,21.40,0.1,1012.38,115.9
2019-07-31 18:50,51.996445,-97.0396333333333,23.9,28.3,156,986.32,22.0,61,21.43,1.6,1012.09,115.9
2019-07-31 19:00,51.9909666666667,-97.0356916666667,23.7,26.9,156,986.53,21.8,63,21.52,2.2,1012.32,115.6
2019-07-31 19:10,51.9851433333333,-97.031215,22.7,25.9,160,986.98,21.8,65,21.60,2.3,1012.78,115.6
2019-07-31 19:20,51.9777516666667,-97.025185,23.7,27.9,164,987.15,21.8,65,21.61,3.0,1012.95,115.6
2019-07-31 19:30,51.9554783333333,-97.0078416666667,28.6,31.9,166,986.21,21.8,67,21.64,8.9,1011.97,115.6
2019-07-31 19:40,51.9290583333333,-96.9872,28.2,32.0,171,986.58,21.9,68,21.77,10.6,1012.34,115.6
2019-07-31 19:50,51.9027316666667,-96.966235,25.7,28.6,173,987.09,22.4,63,21.94,10.6,1012.83,115.6
2019-07-31 20:00,51.8763916666667,-96.9456416666667,26.2,29.8,172,986.91,22.8,59,22.01,10.5,1012.60,126.4
2019-07-31 20:10,51.85,-96.9248083333333,24.1,29.0,175,987.04,22.7,62,21.94,10.6,1012.74,126.4
2019-07-31 20:20,51.8223183333333,-96.9082883333333,25.5,29.6,189,987.30,23.2,55,22.05,10.6,1012.99,126.4
2019-07-31 20:30,51.7948616666667,-96.89064,25.1,29.0,181,987.20,23.7,51,22.05,10.6,1012.87,126.4
2019-07-31 20:40,51.7702783333333,-96.86631,24.3,29.5,172,987.47,23.7,53,22.03,10.4,1013.15,126.4
2019-07-31 20:50,51.7476333333333,-96.8376233333333,26.0,33.4,157,987.32,23.3,55,22.03,10.4,1013.02,126.4
2019-07-31 21:00,51.7222216666667,-96.8159766666667,27.3,30.7,175,987.46,23.3,54,21.98,10.3,1013.16,150.8
2019-07-31 21:10,51.6961816666667,-96.7943083333333,26.3,29.7,180,987.61,23.4,54,21.96,10.5,1013.31,150.8
2019-07-31 21:20,51.6707666666667,-96.7705766666667,26.8,31.9,180,987.53,23.5,54,21.89,10.6,1013.22,150.8
2019-07-31 21:30,51.64468,-96.7475883333333,24.5,29.1,172,987.70,23.2,57,21.78,10.7,1013.41,150.8
2019-07-31 21:40,51.618265,-96.724725,21.7,24.5,163,987.75,22.7,65,21.84,10.8,1013.46,150.8
2019-07-31 21:50,51.5984333333333,-96.72127,18.4,23.3,171,987.91,22.5,66,21.73,7.2,1013.61,150.8
2019-07-31 22:00,51.59888,-96.7223416666667,10.9,12.5,155,988.45,22.6,67,21.71,0.3,1014.17,153.6
2019-07-31 22:10,51.5988783333333,-96.722395,10.6,11.9,145,988.32,22.6,68,21.72,0.0,1014.02,153.6
2019-07-31 22:20,51.5988966666667,-96.7223883333333,9.5,11.0,144,988.38,22.6,68,21.71,0.0,1014.06,153.6
2019-07-31 22:30,51.5988766666667,-96.7223616666667,9.8,11.4,141,988.38,22.6,70,21.71,0.0,1014.06,153.6
2019-07-31 22:40,51.5988833333333,-96.7224066666667,9.9,11.6,141,988.31,22.6,69,21.71,0.0,1013.99,153.6
2019-07-31 22:50,51.5835083333333,-96.7146166666667,16.2,22.8,150,987.76,22.7,69,21.72,5.8,1013.44,153.6
2019-07-31 23:00,51.5552316666667,-96.69812,20.6,22.0,154,987.52,22.9,68,21.79,10.8,1013.18,154.4
2019-07-31 23:10,51.5269633333333,-96.6816133333333,20.5,22.3,154,987.49,23.0,71,21.98,10.8,1013.13,154.4
2019-07-31 23:20,51.4988416666667,-96.6646066666667,21.4,22.3,156,987.33,23.2,69,22.13,10.8,1012.97,154.4
2019-07-31 23:30,51.4704533333333,-96.6482466666667,20.3,21.9,157,987.50,23.2,69,22.19,10.9,1013.16,154.4
2019-07-31 23:40,51.4416733333333,-96.6336733333333,19.3,21.6,161,987.49,23.4,69,22.32,10.9,1013.16,154.4
2019-07-31 23:50,51.4128583333333,-96.61937,19.6,21.6,160,987.41,23.4,69,22.44,10.9,1013.07,154.4
